Time,TemperatureF,DewpointF,PressureIn,WindDirection,WindDirectionDegrees,WindSpeedMPH,WindSpeedGustMPH,Humidity,HourlyPrecipIn,Conditions,Clouds,dailyrainin,SoftwareType,DateUTC
2013-04-28 00:03:00,55.0,52.1,30.23,SW,232,0.0,0.0,90,0.00,,SKC,0.00,VWS V14.01,2013-04-28 04:03:00,
2013-04-28 00:05:00,54.9,52.0,30.23,SW,232,0.0,0.0,90,0.00,,SKC,0.00,VWS V14.01,2013-04-28 04:05:00,
2013-04-28 00:07:00,54.9,52.0,30.23,SW,232,0.0,0.0,90,0.00,,SKC,0.00,VWS V14.01,2013-04-28 04:07:00,
2013-04-28 00:09:00,54.8,51.9,30.23,SW,232,0.0,0.0,90,0.00,,SKC,0.00,VWS V14.01,2013-04-28 04:09:00,
2013-04-28 00:15:00,54.9,52.3,30.23,SW,232,0.0,0.0,91,0.00,,SKC,0.00,VWS V14.01,2013-04-28 04:15:00,
2013-04-28 00:21:00,55.0,52.1,30.23,SW,232,0.0,0.0,90,0.00,,SKC,0.00,VWS V14.01,2013-04-28 04:21:00,
2013-04-28 00:28:00,55.0,52.1,30.23,SW,232,0.0,0.0,90,0.00,,SKC,0.00,VWS V14.01,2013-04-28 04:28:00,
2013-04-28 00:34:00,55.0,52.1,30.23,SW,232,0.0,0.0,90,0.00,,SKC,0.00,VWS V14.01,2013-04-28 04:34:00,
2013-04-28 00:40:00,55.0,52.1,30.23,SW,232,0.0,0.0,90,0.00,,SKC,0.00,VWS V14.01,2013-04-28 04:40:00,
2013-04-28 00:45:00,55.0,52.1,30.23,SW,232,0.0,0.0,90,0.00,,SKC,0.00,VWS V14.01,2013-04-28 04:45:00,
2013-04-28 00:52:00,55.1,52.2,30.23,SW,231,0.0,0.0,90,0.00,,SKC,0.00,VWS V14.01,2013-04-28 04:52:00,
2013-04-28 00:58:00,55.1,52.2,30.23,SW,232,0.0,0.0,90,0.00,,SKC,0.00,VWS V14.01,2013-04-28 04:58:00,
2013-04-28 01:04:00,55.1,52.2,30.23,SW,232,0.0,0.0,90,0.00,,SKC,0.00,VWS V14.01,2013-04-28 05:04:00,
2013-04-28 01:10:00,55.1,52.2,30.23,SW,232,0.0,0.0,90,0.00,,SKC,0.00,VWS V14.01,2013-04-28 05:10:00,
2013-04-28 01:15:00,55.1,52.2,30.23,SW,232,0.0,0.0,90,0.00,,SKC,0.00,VWS V14.01,2013-04-28 05:15:00,
2013-04-28 01:20:00,55.0,52.1,30.23,SW,232,0.0,0.0,90,0.00,,SKC,0.00,VWS V14.01,2013-04-28 05:20:00,
2013-04-28 01:25:00,55.1,52.5,30.23,SW,232,0.0,0.0,91,0.00,,SKC,0.00,VWS V14.01,2013-04-28 05:25:00,
2013-04-28 01:30:00,55.1,52.5,30.22,SW,232,0.0,0.0,91,0.00,,SKC,0.00,VWS V14.01,2013-04-28 05:30:00,
2013-04-28 01:35:00,55.0,52.4,30.23,SW,232,0.0,0.0,91,0.00,,SKC,0.00,VWS V14.01,2013-04-28 05:35:00,
2013-04-28 01:40:00,55.0,52.4,30.23,SW,232,0.0,0.0,91,0.00,,SKC,0.00,VWS V14.01,2013-04-28 05:40:00,
2013-04-28 01:45:00,55.0,52.4,30.22,SW,231,0.0,0.0,91,0.00,,SKC,0.00,VWS V14.01,2013-04-28 05:45:00,
2013-04-28 01:50:00,55.0,52.4,30.23,SW,233,0.0,0.0,91,0.00,,SKC,0.00,VWS V14.01,2013-04-28 05:50:00,
2013-04-28 01:55:00,55.0,52.4,30.22,SW,232,0.0,0.0,91,0.00,,SKC,0.00,VWS V14.01,2013-04-28 05:55:00,
2013-04-28 02:00:00,55.0,52.4,30.22,SW,232,0.0,0.0,91,0.00,,SKC,0.00,VWS V14.01,2013-04-28 06:00:00,
2013-04-28 02:05:00,54.9,52.3,30.22,SW,232,0.0,0.0,91,0.00,,SKC,0.00,VWS V14.01,2013-04-28 06:05:00,
2013-04-28 02:10:00,54.8,52.2,30.22,SW,232,0.0,0.0,91,0.00,,SKC,0.00,VWS V14.01,2013-04-28 06:10:00,
2013-04-28 02:15:00,54.8,52.5,30.22,SW,232,0.0,0.0,92,0.00,,SKC,0.00,VWS V14.01,2013-04-28 06:15:00,
2013-04-28 02:20:00,54.8,52.5,30.22,SW,232,0.0,0.0,92,0.00,,SKC,0.00,VWS V14.01,2013-04-28 06:20:00,
2013-04-28 02:25:00,54.8,52.5,30.21,SW,232,0.0,0.0,92,0.00,,SKC,0.00,VWS V14.01,2013-04-28 06:25:00,
2013-04-28 02:30:00,54.8,52.5,30.21,SW,232,0.0,0.0,92,0.00,,SKC,0.00,VWS V14.01,2013-04-28 06:30:00,
2013-04-28 02:35:00,54.7,52.4,30.20,SW,232,0.0,0.0,92,0.00,,SKC,0.00,VWS V14.01,2013-04-28 06:35:00,
2013-04-28 02:40:00,54.6,52.3,30.20,SW,232,0.0,0.0,92,0.00,,SKC,0.00,VWS V14.01,2013-04-28 06:40:00,
2013-04-28 02:45:00,54.7,52.4,30.20,SW,231,0.0,0.0,92,0.00,,SKC,0.00,VWS V14.01,2013-04-28 06:45:00,
2013-04-28 02:50:00,54.7,52.4,30.20,SW,232,0.0,0.0,92,0.00,,SKC,0.00,VWS V14.01,2013-04-28 06:50:00,
2013-04-28 02:55:00,54.7,52.4,30.20,SW,232,0.0,0.0,92,0.00,,SKC,0.00,VWS V14.01,2013-04-28 06:55:00,
2013-04-28 03:00:00,54.6,52.3,30.20,SW,232,0.0,0.0,92,0.00,,SKC,0.00,VWS V14.01,2013-04-28 07:00:00,
2013-04-28 03:05:00,54.6,52.6,30.19,SW,232,0.0,0.0,93,0.00,,SKC,0.00,VWS V14.01,2013-04-28 07:05:00,
2013-04-28 03:10:00,54.5,52.5,30.19,SW,232,0.0,0.0,93,0.00,,SKC,0.00,VWS V14.01,2013-04-28 07:10:00,
2013-04-28 03:15:00,54.6,52.6,30.19,SW,232,0.0,0.0,93,0.00,,SKC,0.00,VWS V14.01,2013-04-28 07:15:00,
2013-04-28 03:20:00,54.7,52.7,30.19,SW,232,0.0,0.0,93,0.00,,SKC,0.00,VWS V14.01,2013-04-28 07:20:00,
2013-04-28 03:25:00,54.6,52.6,30.19,SW,231,0.0,0.0,93,0.00,,SKC,0.00,VWS V14.01,2013-04-28 07:25:00,
2013-04-28 03:30:00,54.6,52.6,30.19,SW,231,0.0,0.0,93,0.00,,SKC,0.00,VWS V14.01,2013-04-28 07:30:00,
2013-04-28 03:35:00,54.6,52.6,30.19,SW,231,0.0,0.0,93,0.00,,SKC,0.00,VWS V14.01,2013-04-28 07:35:00,
2013-04-28 03:40:00,54.6,52.6,30.19,SW,232,0.0,0.0,93,0.00,,SKC,0.00,VWS V14.01,2013-04-28 07:40:00,
2013-04-28 03:45:00,54.6,52.6,30.19,SW,232,0.0,0.0,93,0.00,,SKC,0.00,VWS V14.01,2013-04-28 07:45:00,
2013-04-28 03:51:00,54.6,52.6,30.18,SW,232,0.0,0.0,93,0.00,,SKC,0.00,VWS V14.01,2013-04-28 07:51:00,
2013-04-28 03:57:00,54.5,52.5,30.18,SW,232,0.0,0.0,93,0.00,,SKC,0.00,VWS V14.01,2013-04-28 07:57:00,
2013-04-28 04:03:00,54.5,52.8,30.18,SW,232,0.0,0.0,94,0.00,,SKC,0.00,VWS V14.01,2013-04-28 08:03:00,
2013-04-28 04:09:00,54.4,52.7,30.18,SW,232,0.0,0.0,94,0.00,,SKC,0.00,VWS V14.01,2013-04-28 08:09:00,
2013-04-28 04:15:00,54.4,52.7,30.18,SW,232,0.0,0.0,94,0.01,,SKC,0.01,VWS V14.01,2013-04-28 08:15:00,
2013-04-28 04:20:00,54.4,52.7,30.19,SW,232,0.0,0.0,94,0.01,,SKC,0.01,VWS V14.01,2013-04-28 08:20:00,
2013-04-28 04:25:00,54.4,52.7,30.18,SW,232,0.0,0.0,94,0.01,,SKC,0.01,VWS V14.01,2013-04-28 08:25:00,
2013-04-28 04:30:00,54.4,52.7,30.18,SW,231,0.0,0.0,94,0.01,,SKC,0.01,VWS V14.01,2013-04-28 08:30:00,
2013-04-28 04:35:00,54.4,52.7,30.18,SW,232,0.0,0.0,94,0.01,,SKC,0.01,VWS V14.01,2013-04-28 08:35:00,
2013-04-28 04:40:00,54.4,53.0,30.18,South,170,0.0,0.0,95,0.01,,SKC,0.01,VWS V14.01,2013-04-28 08:40:00,
2013-04-28 04:45:00,54.3,52.9,30.18,SE,125,0.0,0.0,95,0.01,,SKC,0.01,VWS V14.01,2013-04-28 08:45:00,
2013-04-28 04:50:00,54.3,52.9,30.19,SE,129,0.0,0.0,95,0.01,,SKC,0.01,VWS V14.01,2013-04-28 08:50:00,
2013-04-28 04:55:00,54.2,52.8,30.19,SE,131,0.0,0.0,95,0.01,,SKC,0.01,VWS V14.01,2013-04-28 08:55:00,
2013-04-28 05:00:00,54.2,52.8,30.19,SE,131,0.0,0.0,95,0.02,,SKC,0.02,VWS V14.01,2013-04-28 09:00:00,
2013-04-28 05:06:00,54.2,52.8,30.18,SE,131,0.0,0.0,95,0.03,,SKC,0.03,VWS V14.01,2013-04-28 09:06:00,
2013-04-28 05:12:00,54.2,52.8,30.19,SE,131,0.0,0.0,95,0.03,,SKC,0.03,VWS V14.01,2013-04-28 09:12:00,
2013-04-28 05:18:00,54.1,52.7,30.19,SE,131,0.0,0.0,95,0.02,,SKC,0.03,VWS V14.01,2013-04-28 09:18:00,
2013-04-28 05:24:00,54.1,52.7,30.19,SE,131,0.0,0.0,95,0.02,,SKC,0.03,VWS V14.01,2013-04-28 09:24:00,
2013-04-28 05:30:00,54.1,52.7,30.19,SE,131,0.0,0.0,95,0.02,,SKC,0.03,VWS V14.01,2013-04-28 09:30:00,
2013-04-28 05:35:00,54.1,52.7,30.19,WSW,248,0.0,0.0,95,0.02,,SKC,0.03,VWS V14.01,2013-04-28 09:35:00,
2013-04-28 05:40:00,54.1,52.7,30.20,WSW,248,0.0,0.0,95,0.02,,SKC,0.03,VWS V14.01,2013-04-28 09:40:00,
2013-04-28 05:45:00,54.1,52.7,30.19,WSW,248,0.0,0.0,95,0.02,,SKC,0.03,VWS V14.01,2013-04-28 09:45:00,
2013-04-28 05:50:00,54.1,52.7,30.19,WSW,248,0.0,0.0,95,0.02,,SKC,0.03,VWS V14.01,2013-04-28 09:50:00,
2013-04-28 05:55:00,54.0,52.6,30.19,WSW,248,0.0,0.0,95,0.02,,SKC,0.03,VWS V14.01,2013-04-28 09:55:00,
2013-04-28 06:00:00,54.1,53.0,30.19,WSW,248,0.0,0.0,96,0.02,,SKC,0.03,VWS V14.01,2013-04-28 10:00:00,
2013-04-28 06:06:00,54.1,53.0,30.19,WSW,248,0.0,0.0,96,0.00,,SKC,0.03,VWS V14.01,2013-04-28 10:06:00,
2013-04-28 06:12:00,54.0,52.9,30.18,WSW,248,0.0,0.0,96,0.00,,SKC,0.03,VWS V14.01,2013-04-28 10:12:00,
2013-04-28 06:18:00,54.0,52.9,30.19,WSW,248,0.0,0.0,96,0.00,,SKC,0.03,VWS V14.01,2013-04-28 10:18:00,
2013-04-28 06:24:00,54.0,52.9,30.19,WSW,248,0.0,0.0,96,0.00,,SKC,0.03,VWS V14.01,2013-04-28 10:24:00,
2013-04-28 06:30:00,53.9,52.8,30.19,WSW,248,0.0,0.0,96,0.00,,SKC,0.03,VWS V14.01,2013-04-28 10:30:00,
2013-04-28 06:35:00,53.8,52.7,30.19,WSW,248,0.0,0.0,96,0.00,,SKC,0.03,VWS V14.01,2013-04-28 10:35:00,
2013-04-28 06:42:00,53.8,52.7,30.20,WSW,248,0.0,0.0,96,0.00,,SKC,0.03,VWS V14.01,2013-04-28 10:42:00,
2013-04-28 06:48:00,53.8,52.7,30.20,WSW,248,0.0,0.0,96,0.00,,SKC,0.03,VWS V14.01,2013-04-28 10:48:00,
2013-04-28 06:54:00,53.8,52.7,30.21,WSW,248,0.0,0.0,96,0.00,,SKC,0.03,VWS V14.01,2013-04-28 10:54:00,
2013-04-28 07:00:00,53.7,52.6,30.21,WSW,248,0.0,0.0,96,0.00,,SKC,0.03,VWS V14.01,2013-04-28 11:00:00,
2013-04-28 07:05:00,53.7,52.6,30.20,WSW,248,0.0,0.0,96,0.00,,SKC,0.03,VWS V14.01,2013-04-28 11:05:00,
2013-04-28 07:10:00,53.7,52.6,30.19,WSW,248,0.0,0.0,96,0.00,,SKC,0.03,VWS V14.01,2013-04-28 11:10:00,
2013-04-28 07:15:00,53.7,52.6,30.19,NE,40,1.0,0.0,96,0.00,,SKC,0.03,VWS V14.01,2013-04-28 11:15:00,
2013-04-28 07:20:00,53.5,52.4,30.19,East,100,0.0,0.0,96,0.00,,SKC,0.03,VWS V14.01,2013-04-28 11:20:00,
2013-04-28 07:25:00,53.6,52.5,30.19,ESE,117,0.0,0.0,96,0.00,,SKC,0.03,VWS V14.01,2013-04-28 11:25:00,
2013-04-28 07:30:00,53.6,52.5,30.18,ESE,121,0.0,0.0,96,0.00,,SKC,0.03,VWS V14.01,2013-04-28 11:30:00,
2013-04-28 07:35:00,53.7,52.6,30.19,WSW,242,0.0,0.0,96,0.00,,SKC,0.03,VWS V14.01,2013-04-28 11:35:00,
2013-04-28 07:40:00,53.8,52.7,30.20,SW,217,1.0,0.0,96,0.00,,SKC,0.03,VWS V14.01,2013-04-28 11:40:00,
2013-04-28 07:45:00,53.9,52.5,30.19,SSW,210,0.0,0.0,95,0.00,,SKC,0.03,VWS V14.01,2013-04-28 11:45:00,
2013-04-28 07:50:00,54.0,52.6,30.20,SW,231,1.0,0.0,95,0.00,,SKC,0.03,VWS V14.01,2013-04-28 11:50:00,
2013-04-28 07:55:00,54.1,52.7,30.20,SSW,205,0.0,0.0,95,0.00,,SKC,0.03,VWS V14.01,2013-04-28 11:55:00,
2013-04-28 08:00:00,54.2,52.5,30.20,SW,215,1.0,0.0,94,0.00,,SKC,0.03,VWS V14.01,2013-04-28 12:00:00,
2013-04-28 08:05:00,54.2,52.5,30.20,East,91,0.0,0.0,94,0.00,,SKC,0.03,VWS V14.01,2013-04-28 12:05:00,
2013-04-28 08:10:00,54.3,52.6,30.21,SSW,200,0.0,0.0,94,0.00,,SKC,0.03,VWS V14.01,2013-04-28 12:10:00,
2013-04-28 08:15:00,54.3,52.3,30.21,SSW,206,0.0,0.0,93,0.00,,SKC,0.03,VWS V14.01,2013-04-28 12:15:00,
2013-04-28 08:20:00,54.3,52.3,30.21,South,183,0.0,0.0,93,0.00,,SKC,0.03,VWS V14.01,2013-04-28 12:20:00,
2013-04-28 08:25:00,54.4,52.1,30.21,SW,228,0.0,0.0,92,0.00,,SKC,0.03,VWS V14.01,2013-04-28 12:25:00,
2013-04-28 08:30:00,54.4,52.1,30.20,East,92,0.0,0.0,92,0.00,,SKC,0.03,VWS V14.01,2013-04-28 12:30:00,
2013-04-28 08:37:00,54.4,52.1,30.20,SW,225,0.0,0.0,92,0.00,,SKC,0.03,VWS V14.01,2013-04-28 12:37:00,
2013-04-28 08:43:00,54.4,52.1,30.20,SE,131,0.0,0.0,92,0.00,,SKC,0.03,VWS V14.01,2013-04-28 12:43:00,
2013-04-28 08:49:00,54.4,52.1,30.20,South,169,0.0,0.0,92,0.00,,SKC,0.03,VWS V14.01,2013-04-28 12:49:00,
2013-04-28 08:55:00,54.6,52.3,30.20,ENE,64,1.0,0.0,92,0.00,,SKC,0.03,VWS V14.01,2013-04-28 12:55:00,
2013-04-28 09:00:00,54.9,52.3,30.20,ESE,113,1.0,0.0,91,0.00,,SKC,0.03,VWS V14.01,2013-04-28 13:00:00,
2013-04-28 09:05:00,55.1,52.5,30.20,South,170,0.0,0.0,91,0.00,,SKC,0.03,VWS V14.01,2013-04-28 13:05:00,
2013-04-28 09:10:00,55.3,52.7,30.20,ESE,110,0.0,0.0,91,0.00,,SKC,0.03,VWS V14.01,2013-04-28 13:10:00,
2013-04-28 09:15:00,55.3,52.4,30.21,South,174,0.0,0.0,90,0.00,,SKC,0.03,VWS V14.01,2013-04-28 13:15:00,
2013-04-28 09:21:00,55.4,52.2,30.21,SE,131,1.0,0.0,89,0.00,,SKC,0.03,VWS V14.01,2013-04-28 13:21:00,
2013-04-28 09:27:00,55.5,52.3,30.21,East,85,0.0,0.0,89,0.00,,SKC,0.03,VWS V14.01,2013-04-28 13:27:00,
2013-04-28 09:33:00,55.5,52.3,30.20,SW,233,1.0,0.0,89,0.00,,SKC,0.03,VWS V14.01,2013-04-28 13:33:00,
2013-04-28 09:39:00,55.5,52.3,30.20,SSW,203,0.0,0.0,89,0.00,,SKC,0.03,VWS V14.01,2013-04-28 13:39:00,
2013-04-28 09:45:00,55.7,52.5,30.20,SW,214,1.0,0.0,89,0.00,,SKC,0.03,VWS V14.01,2013-04-28 13:45:00,
2013-04-28 09:50:00,55.8,52.3,30.20,South,177,0.0,0.0,88,0.00,,SKC,0.03,VWS V14.01,2013-04-28 13:50:00,
2013-04-28 09:55:00,55.9,52.4,30.20,SW,231,0.0,0.0,88,0.00,,SKC,0.03,VWS V14.01,2013-04-28 13:55:00,
2013-04-28 10:00:00,55.9,52.4,30.19,NE,47,1.0,0.0,88,0.00,,SKC,0.03,VWS V14.01,2013-04-28 14:00:00,
2013-04-28 10:05:00,56.1,52.9,30.20,ENE,78,0.0,0.0,89,0.00,,SKC,0.03,VWS V14.01,2013-04-28 14:05:00,
2013-04-28 10:10:00,56.2,52.7,30.19,ESE,113,1.0,0.0,88,0.00,,SKC,0.03,VWS V14.01,2013-04-28 14:10:00,
2013-04-28 10:15:00,56.1,52.6,30.19,ESE,108,0.0,0.0,88,0.00,,SKC,0.03,VWS V14.01,2013-04-28 14:15:00,
2013-04-28 10:20:00,56.1,52.9,30.20,ESE,108,0.0,0.0,89,0.00,,SKC,0.03,VWS V14.01,2013-04-28 14:20:00,
2013-04-28 10:25:00,56.2,53.0,30.20,ESE,108,0.0,0.0,89,0.00,,SKC,0.03,VWS V14.01,2013-04-28 14:25:00,
2013-04-28 10:30:00,56.2,53.0,30.20,ESE,108,0.0,0.0,89,0.00,,SKC,0.03,VWS V14.01,2013-04-28 14:30:00,
2013-04-28 10:35:00,56.2,52.7,30.20,ESE,109,0.0,0.0,88,0.00,,SKC,0.03,VWS V14.01,2013-04-28 14:35:00,
2013-04-28 10:41:00,56.1,52.6,30.20,ESE,108,0.0,0.0,88,0.00,,SKC,0.03,VWS V14.01,2013-04-28 14:41:00,
2013-04-28 10:47:00,56.2,52.7,30.21,ESE,108,0.0,0.0,88,0.00,,SKC,0.03,VWS V14.01,2013-04-28 14:47:00,
2013-04-28 10:53:00,56.2,53.0,30.21,ESE,108,0.0,0.0,89,0.01,,SKC,0.04,VWS V14.01,2013-04-28 14:53:00,
2013-04-28 10:59:00,56.2,53.0,30.21,ESE,108,0.0,0.0,89,0.01,,SKC,0.04,VWS V14.01,2013-04-28 14:59:00,
2013-04-28 11:05:00,56.1,53.2,30.21,ESE,108,0.0,0.0,90,0.02,,SKC,0.05,VWS V14.01,2013-04-28 15:05:00,
2013-04-28 11:10:00,55.9,53.3,30.21,ESE,109,0.0,0.0,91,0.03,,SKC,0.06,VWS V14.01,2013-04-28 15:10:00,
2013-04-28 11:15:00,55.9,53.6,30.21,ESE,108,0.0,0.0,92,0.04,,SKC,0.07,VWS V14.01,2013-04-28 15:15:00,
2013-04-28 11:20:00,55.8,53.5,30.20,ESE,108,0.0,0.0,92,0.05,,SKC,0.08,VWS V14.01,2013-04-28 15:20:00,
2013-04-28 11:25:00,55.6,53.6,30.20,ESE,108,0.0,0.0,93,0.06,,SKC,0.09,VWS V14.01,2013-04-28 15:25:00,
2013-04-28 11:30:00,55.5,53.5,30.20,ESE,108,0.0,0.0,93,0.07,,SKC,0.10,VWS V14.01,2013-04-28 15:30:00,
2013-04-28 11:35:00,55.5,53.8,30.20,ESE,108,0.0,0.0,94,0.08,,SKC,0.11,VWS V14.01,2013-04-28 15:35:00,
2013-04-28 11:40:00,55.8,54.1,30.20,ESE,109,0.0,0.0,94,0.09,,SKC,0.12,VWS V14.01,2013-04-28 15:40:00,
2013-04-28 11:45:00,55.7,54.0,30.20,ESE,108,0.0,0.0,94,0.09,,SKC,0.12,VWS V14.01,2013-04-28 15:45:00,
2013-04-28 11:50:00,55.4,53.4,30.20,ESE,108,0.0,0.0,93,0.09,,SKC,0.12,VWS V14.01,2013-04-28 15:50:00,
2013-04-28 11:55:00,55.3,53.6,30.20,ESE,108,0.0,0.0,94,0.09,,SKC,0.12,VWS V14.01,2013-04-28 15:55:00,
2013-04-28 12:05:00,55.6,53.9,30.20,ESE,109,0.0,0.0,94,0.08,,SKC,0.12,VWS V14.01,2013-04-28 16:05:00,
2013-04-28 12:10:00,55.7,54.0,30.20,ESE,108,0.0,0.0,94,0.08,,SKC,0.13,VWS V14.01,2013-04-28 16:10:00,
2013-04-28 12:15:00,55.9,54.2,30.20,ESE,108,0.0,0.0,94,0.07,,SKC,0.13,VWS V14.01,2013-04-28 16:15:00,
2013-04-28 12:20:00,55.9,54.2,30.19,ESE,108,0.0,0.0,94,0.07,,SKC,0.14,VWS V14.01,2013-04-28 16:20:00,
2013-04-28 12:25:00,55.9,54.2,30.19,ESE,108,0.0,0.0,94,0.06,,SKC,0.14,VWS V14.01,2013-04-28 16:25:00,
2013-04-28 12:30:00,56.0,54.3,30.20,ESE,108,0.0,0.0,94,0.05,,SKC,0.14,VWS V14.01,2013-04-28 16:30:00,
2013-04-28 12:35:00,55.9,54.2,30.20,ESE,108,0.0,0.0,94,0.05,,SKC,0.15,VWS V14.01,2013-04-28 16:35:00,
2013-04-28 12:40:00,55.6,53.9,30.19,ESE,108,1.0,0.0,94,0.04,,SKC,0.15,VWS V14.01,2013-04-28 16:40:00,
2013-04-28 12:45:00,55.6,53.9,30.19,ESE,108,0.0,0.0,94,0.04,,SKC,0.16,VWS V14.01,2013-04-28 16:45:00,
2013-04-28 12:50:00,55.6,53.9,30.18,North,1,0.0,0.0,94,0.05,,SKC,0.17,VWS V14.01,2013-04-28 16:50:00,
2013-04-28 12:55:00,55.8,54.4,30.18,North,1,0.0,0.0,95,0.06,,SKC,0.18,VWS V14.01,2013-04-28 16:55:00,
2013-04-28 13:00:00,55.8,54.4,30.18,North,359,0.0,0.0,95,0.07,,SKC,0.19,VWS V14.01,2013-04-28 17:00:00,
2013-04-28 13:05:00,55.7,54.0,30.19,North,359,0.0,0.0,94,0.07,,SKC,0.19,VWS V14.01,2013-04-28 17:05:00,
2013-04-28 13:10:00,55.6,54.2,30.18,North,360,0.0,0.0,95,0.09,,SKC,0.21,VWS V14.01,2013-04-28 17:10:00,
2013-04-28 13:15:00,55.5,54.1,30.18,NNW,337,0.0,0.0,95,0.09,,SKC,0.22,VWS V14.01,2013-04-28 17:15:00,
2013-04-28 13:20:00,55.4,54.0,30.18,NNW,337,0.0,0.0,95,0.10,,SKC,0.23,VWS V14.01,2013-04-28 17:20:00,
2013-04-28 13:25:00,55.3,53.9,30.18,NNW,340,0.0,0.0,95,0.11,,SKC,0.25,VWS V14.01,2013-04-28 17:25:00,
2013-04-28 13:30:00,55.3,53.9,30.18,NNW,340,0.0,0.0,95,0.13,,SKC,0.27,VWS V14.01,2013-04-28 17:30:00,
2013-04-28 13:35:00,55.3,53.9,30.18,ESE,113,0.0,0.0,95,0.15,,SKC,0.29,VWS V14.01,2013-04-28 17:35:00,
2013-04-28 13:40:00,55.3,54.2,30.18,North,356,1.0,0.0,96,0.15,,SKC,0.30,VWS V14.01,2013-04-28 17:40:00,
2013-04-28 13:45:00,55.2,53.8,30.18,NNW,347,0.0,0.0,95,0.16,,SKC,0.31,VWS V14.01,2013-04-28 17:45:00,
2013-04-28 13:50:00,55.3,54.2,30.18,NNW,347,0.0,0.0,96,0.16,,SKC,0.32,VWS V14.01,2013-04-28 17:50:00,
2013-04-28 13:55:00,55.2,54.1,30.18,NNW,348,0.0,0.0,96,0.17,,SKC,0.34,VWS V14.01,2013-04-28 17:55:00,
2013-04-28 14:00:00,55.3,54.2,30.18,NNW,347,0.0,0.0,96,0.17,,SKC,0.35,VWS V14.01,2013-04-28 18:00:00,
2013-04-28 14:05:00,55.2,54.1,30.17,NNW,347,0.0,0.0,96,0.17,,SKC,0.36,VWS V14.01,2013-04-28 18:05:00,
2013-04-28 14:10:00,55.1,54.0,30.17,NNW,333,0.0,0.0,96,0.19,,SKC,0.38,VWS V14.01,2013-04-28 18:10:00,
2013-04-28 14:15:00,55.1,54.0,30.17,NNW,333,0.0,0.0,96,0.18,,SKC,0.39,VWS V14.01,2013-04-28 18:15:00,
2013-04-28 14:20:00,55.2,54.1,30.17,NNW,333,0.0,0.0,96,0.19,,SKC,0.41,VWS V14.01,2013-04-28 18:20:00,
2013-04-28 14:25:00,55.3,54.2,30.17,NNW,333,0.0,0.0,96,0.19,,SKC,0.42,VWS V14.01,2013-04-28 18:25:00,
2013-04-28 14:30:00,55.4,54.3,30.17,NNW,333,0.0,0.0,96,0.19,,SKC,0.44,VWS V14.01,2013-04-28 18:30:00,
2013-04-28 14:35:00,55.3,54.2,30.17,NNW,333,0.0,0.0,96,0.20,,SKC,0.47,VWS V14.01,2013-04-28 18:35:00,
2013-04-28 14:40:00,55.3,54.2,30.17,NNW,335,0.0,0.0,96,0.20,,SKC,0.49,VWS V14.01,2013-04-28 18:40:00,
2013-04-28 14:45:00,55.4,54.3,30.17,NNW,335,0.0,0.0,96,0.21,,SKC,0.51,VWS V14.01,2013-04-28 18:45:00,
2013-04-28 14:50:00,55.4,54.3,30.17,NNW,335,0.0,0.0,96,0.22,,SKC,0.53,VWS V14.01,2013-04-28 18:50:00,
2013-04-28 14:55:00,55.3,54.2,30.16,NNW,335,0.0,0.0,96,0.22,,SKC,0.54,VWS V14.01,2013-04-28 18:55:00,
2013-04-28 15:00:00,55.2,54.1,30.16,NNW,333,0.0,0.0,96,0.22,,SKC,0.56,VWS V14.01,2013-04-28 19:00:00,
2013-04-28 15:05:00,55.1,54.0,30.16,NNW,333,0.0,0.0,96,0.24,,SKC,0.59,VWS V14.01,2013-04-28 19:05:00,
2013-04-28 15:10:00,55.1,54.0,30.15,NNW,335,0.0,0.0,96,0.25,,SKC,0.61,VWS V14.01,2013-04-28 19:10:00,
2013-04-28 15:15:00,55.2,54.1,30.15,NNW,333,0.0,0.0,96,0.25,,SKC,0.63,VWS V14.01,2013-04-28 19:15:00,
2013-04-28 15:20:00,55.3,54.5,30.15,North,350,0.0,0.0,97,0.26,,SKC,0.65,VWS V14.01,2013-04-28 19:20:00,
2013-04-28 15:25:00,55.2,54.1,30.14,North,349,1.0,0.0,96,0.25,,SKC,0.66,VWS V14.01,2013-04-28 19:25:00,
2013-04-28 15:30:00,55.1,54.3,30.14,NNW,345,2.0,0.0,97,0.26,,SKC,0.68,VWS V14.01,2013-04-28 19:30:00,
2013-04-28 15:35:00,55.1,54.3,30.14,North,8,0.0,0.0,97,0.26,,SKC,0.70,VWS V14.01,2013-04-28 19:35:00,
2013-04-28 15:40:00,55.0,54.2,30.14,NE,46,0.0,0.0,97,0.25,,SKC,0.72,VWS V14.01,2013-04-28 19:40:00,
2013-04-28 15:45:00,54.9,54.1,30.14,NE,46,0.0,0.0,97,0.24,,SKC,0.73,VWS V14.01,2013-04-28 19:45:00,
2013-04-28 15:50:00,54.8,54.0,30.14,NNW,333,0.0,0.0,97,0.25,,SKC,0.76,VWS V14.01,2013-04-28 19:50:00,
2013-04-28 15:55:00,54.9,54.1,30.13,NNW,333,0.0,0.0,97,0.25,,SKC,0.78,VWS V14.01,2013-04-28 19:55:00,
2013-04-28 16:00:00,54.9,54.1,30.13,NNW,335,0.0,0.0,97,0.26,,SKC,0.80,VWS V14.01,2013-04-28 20:00:00,
2013-04-28 16:05:00,55.0,54.2,30.13,North,352,0.0,0.0,97,0.26,,SKC,0.82,VWS V14.01,2013-04-28 20:05:00,
2013-04-28 16:10:00,55.0,54.2,30.13,SSW,203,0.0,0.0,97,0.26,,SKC,0.85,VWS V14.01,2013-04-28 20:10:00,
2013-04-28 16:15:00,55.0,54.2,30.12,North,360,0.0,0.0,97,0.25,,SKC,0.86,VWS V14.01,2013-04-28 20:15:00,
2013-04-28 16:20:00,55.1,54.3,30.12,NNW,332,0.0,0.0,97,0.25,,SKC,0.88,VWS V14.01,2013-04-28 20:20:00,
2013-04-28 16:25:00,55.1,54.3,30.12,NNW,327,0.0,0.0,97,0.24,,SKC,0.89,VWS V14.01,2013-04-28 20:25:00,
2013-04-28 16:31:00,55.1,54.3,30.12,NNW,333,0.0,0.0,97,0.23,,SKC,0.91,VWS V14.01,2013-04-28 20:31:00,
2013-04-28 16:37:00,55.1,54.3,30.12,NE,41,0.0,0.0,97,0.22,,SKC,0.92,VWS V14.01,2013-04-28 20:37:00,
2013-04-28 16:43:00,55.1,54.3,30.11,North,352,0.0,0.0,97,0.22,,SKC,0.94,VWS V14.01,2013-04-28 20:43:00,
2013-04-28 16:49:00,55.2,54.4,30.12,NNW,327,0.0,0.0,97,0.22,,SKC,0.95,VWS V14.01,2013-04-28 20:49:00,
2013-04-28 16:55:00,55.1,54.3,30.11,North,11,1.0,0.0,97,0.20,,SKC,0.96,VWS V14.01,2013-04-28 20:55:00,
2013-04-28 17:00:00,55.1,54.3,30.11,North,9,0.0,0.0,97,0.20,,SKC,0.98,VWS V14.01,2013-04-28 21:00:00,
2013-04-28 17:05:00,55.1,54.3,30.11,ESE,104,0.0,0.0,97,0.18,,SKC,0.98,VWS V14.01,2013-04-28 21:05:00,
2013-04-28 17:10:00,54.9,54.1,30.11,East,87,3.0,0.0,97,0.18,,SKC,1.00,VWS V14.01,2013-04-28 21:10:00,
2013-04-28 17:15:00,54.8,54.0,30.11,SE,134,0.0,0.0,97,0.15,,SKC,1.00,VWS V14.01,2013-04-28 21:15:00,
2013-04-28 17:20:00,54.6,53.8,30.10,NNE,16,0.0,0.0,97,0.15,,SKC,1.01,VWS V14.01,2013-04-28 21:20:00,
2013-04-28 17:25:00,54.5,53.7,30.10,ESE,109,0.0,0.0,97,0.14,,SKC,1.02,VWS V14.01,2013-04-28 21:25:00,
2013-04-28 17:31:00,54.3,53.5,30.10,ESE,108,3.0,0.0,97,0.11,,SKC,1.02,VWS V14.01,2013-04-28 21:31:00,
2013-04-28 17:37:00,54.1,53.0,30.10,ESE,103,2.0,0.0,96,0.11,,SKC,1.03,VWS V14.01,2013-04-28 21:37:00,
2013-04-28 17:43:00,53.8,53.0,30.10,ESE,122,1.0,0.0,97,0.11,,SKC,1.04,VWS V14.01,2013-04-28 21:43:00,
2013-04-28 17:49:00,53.8,53.0,30.10,ESE,104,0.0,0.0,97,0.11,,SKC,1.05,VWS V14.01,2013-04-28 21:49:00,
2013-04-28 17:55:00,53.7,52.9,30.10,East,100,2.0,0.0,97,0.11,,SKC,1.06,VWS V14.01,2013-04-28 21:55:00,
2013-04-28 18:00:00,53.7,52.9,30.10,ESE,109,0.0,0.0,97,0.12,,SKC,1.08,VWS V14.01,2013-04-28 22:00:00,
2013-04-28 18:05:00,53.7,52.9,30.10,ESE,120,2.0,0.0,97,0.11,,SKC,1.09,VWS V14.01,2013-04-28 22:05:00,
2013-04-28 18:11:00,53.6,52.8,30.10,East,95,5.0,0.0,97,0.11,,SKC,1.11,VWS V14.01,2013-04-28 22:11:00,
2013-04-28 18:17:00,53.3,52.5,30.10,ESE,115,3.0,0.0,97,0.12,,SKC,1.12,VWS V14.01,2013-04-28 22:17:00,
2013-04-28 18:23:00,53.3,52.5,30.09,ESE,102,3.0,0.0,97,0.13,,SKC,1.14,VWS V14.01,2013-04-28 22:23:00,
2013-04-28 18:29:00,53.1,52.3,30.09,SE,134,0.0,0.0,97,0.14,,SKC,1.16,VWS V14.01,2013-04-28 22:29:00,
2013-04-28 18:35:00,53.0,52.2,30.09,NNE,13,0.0,0.0,97,0.15,,SKC,1.17,VWS V14.01,2013-04-28 22:35:00,
2013-04-28 18:40:00,52.9,52.1,30.09,SE,127,2.0,0.0,97,0.16,,SKC,1.19,VWS V14.01,2013-04-28 22:40:00,
2013-04-28 18:45:00,52.8,52.0,30.09,ESE,108,0.0,0.0,97,0.16,,SKC,1.20,VWS V14.01,2013-04-28 22:45:00,
2013-04-28 18:50:00,52.7,51.9,30.09,East,91,2.0,0.0,97,0.15,,SKC,1.20,VWS V14.01,2013-04-28 22:50:00,
2013-04-28 18:55:00,52.6,51.8,30.09,East,90,1.0,0.0,97,0.15,,SKC,1.21,VWS V14.01,2013-04-28 22:55:00,
2013-04-28 19:00:00,52.5,51.7,30.09,ESE,108,0.0,0.0,97,0.16,,SKC,1.22,VWS V14.01,2013-04-28 23:00:00,
2013-04-28 19:05:00,52.4,51.6,30.09,NNW,345,0.0,0.0,97,0.14,,SKC,1.23,VWS V14.01,2013-04-28 23:05:00,
2013-04-28 19:11:00,52.4,51.6,30.09,ENE,72,1.0,0.0,97,0.14,,SKC,1.24,VWS V14.01,2013-04-28 23:11:00,
2013-04-28 19:17:00,52.4,51.6,30.09,ENE,72,3.0,0.0,97,0.13,,SKC,1.25,VWS V14.01,2013-04-28 23:17:00,
2013-04-28 19:23:00,52.3,51.5,30.09,ESE,108,0.0,0.0,97,0.13,,SKC,1.26,VWS V14.01,2013-04-28 23:23:00,
2013-04-28 19:29:00,52.3,51.5,30.09,ESE,116,4.0,0.0,97,0.11,,SKC,1.26,VWS V14.01,2013-04-28 23:29:00,
2013-04-28 19:35:00,52.3,51.5,30.09,ESE,118,0.0,0.0,97,0.11,,SKC,1.27,VWS V14.01,2013-04-28 23:35:00,
2013-04-28 19:40:00,52.3,51.5,30.08,ESE,113,0.0,0.0,97,0.11,,SKC,1.28,VWS V14.01,2013-04-28 23:40:00,
2013-04-28 19:45:00,52.3,51.5,30.08,East,89,0.0,0.0,97,0.08,,SKC,1.28,VWS V14.01,2013-04-28 23:45:00,
2013-04-28 19:51:00,52.2,51.4,30.08,SE,144,1.0,0.0,97,0.09,,SKC,1.29,VWS V14.01,2013-04-28 23:51:00,
2013-04-28 19:57:00,52.2,51.4,30.08,East,100,3.0,0.0,97,0.09,,SKC,1.30,VWS V14.01,2013-04-28 23:57:00,
2013-04-28 20:04:00,52.2,51.4,30.08,East,99,4.0,0.0,97,0.09,,SKC,1.31,VWS V14.01,2013-04-29 00:04:00,
2013-04-28 20:10:00,52.2,51.4,30.08,SE,146,3.0,0.0,97,0.09,,SKC,1.32,VWS V14.01,2013-04-29 00:10:00,
2013-04-28 20:15:00,52.2,51.4,30.08,NE,42,3.0,0.0,97,0.09,,SKC,1.33,VWS V14.01,2013-04-29 00:15:00,
2013-04-28 20:20:00,52.2,51.4,30.08,South,169,2.0,0.0,97,0.08,,SKC,1.33,VWS V14.01,2013-04-29 00:20:00,
2013-04-28 20:25:00,52.2,51.4,30.08,ESE,117,0.0,0.0,97,0.09,,SKC,1.34,VWS V14.01,2013-04-29 00:25:00,
2013-04-28 20:30:00,52.2,51.4,30.07,SE,139,1.0,0.0,97,0.08,,SKC,1.34,VWS V14.01,2013-04-29 00:30:00,
2013-04-28 20:35:00,52.2,51.4,30.07,North,11,2.0,0.0,97,0.08,,SKC,1.35,VWS V14.01,2013-04-29 00:35:00,
2013-04-28 20:40:00,52.2,51.4,30.07,SE,141,3.0,0.0,97,0.08,,SKC,1.35,VWS V14.01,2013-04-29 00:40:00,
2013-04-28 20:45:00,52.2,51.4,30.06,ESE,118,2.0,0.0,97,0.08,,SKC,1.36,VWS V14.01,2013-04-29 00:45:00,
2013-04-28 20:50:00,52.2,51.4,30.06,East,96,3.0,0.0,97,0.08,,SKC,1.36,VWS V14.01,2013-04-29 00:50:00,
2013-04-28 20:55:00,52.3,51.5,30.06,ESE,104,2.0,0.0,97,0.07,,SKC,1.36,VWS V14.01,2013-04-29 00:55:00,
2013-04-28 21:00:00,52.4,51.6,30.06,ESE,118,7.0,0.0,97,0.07,,SKC,1.37,VWS V14.01,2013-04-29 01:00:00,
2013-04-28 21:06:00,52.4,51.6,30.06,SE,139,0.0,0.0,97,0.06,,SKC,1.37,VWS V14.01,2013-04-29 01:06:00,
2013-04-28 21:12:00,52.5,51.7,30.06,East,88,2.0,0.0,97,0.05,,SKC,1.37,VWS V14.01,2013-04-29 01:12:00,
2013-04-28 21:18:00,52.6,51.8,30.06,ESE,118,4.0,0.0,97,0.05,,SKC,1.38,VWS V14.01,2013-04-29 01:18:00,
2013-04-28 21:24:00,52.7,51.9,30.06,East,84,2.0,0.0,97,0.05,,SKC,1.38,VWS V14.01,2013-04-29 01:24:00,
2013-04-28 21:30:00,52.8,52.0,30.05,East,98,1.0,0.0,97,0.04,,SKC,1.38,VWS V14.01,2013-04-29 01:30:00,
2013-04-28 21:35:00,52.8,52.2,30.05,East,100,4.0,0.0,98,0.04,,SKC,1.38,VWS V14.01,2013-04-29 01:35:00,
2013-04-28 21:40:00,52.9,52.3,30.06,East,99,1.0,0.0,98,0.03,,SKC,1.38,VWS V14.01,2013-04-29 01:40:00,
2013-04-28 21:45:00,53.0,52.5,30.05,ESE,120,5.0,0.0,98,0.03,,SKC,1.38,VWS V14.01,2013-04-29 01:45:00,
2013-04-28 21:50:00,53.2,52.7,30.05,SSE,159,0.0,0.0,98,0.02,,SKC,1.38,VWS V14.01,2013-04-29 01:50:00,
2013-04-28 21:55:00,53.2,52.7,30.06,SE,142,0.0,0.0,98,0.02,,SKC,1.38,VWS V14.01,2013-04-29 01:55:00,
2013-04-28 22:00:00,53.4,52.8,30.06,SE,138,2.0,0.0,98,0.02,,SKC,1.38,VWS V14.01,2013-04-29 02:00:00,
2013-04-28 22:05:00,53.5,53.0,30.06,SE,127,2.0,0.0,98,0.01,,SKC,1.38,VWS V14.01,2013-04-29 02:05:00,
2013-04-28 22:10:00,53.5,53.0,30.06,ENE,74,1.0,0.0,98,0.02,,SKC,1.39,VWS V14.01,2013-04-29 02:10:00,
2013-04-28 22:15:00,53.6,53.0,30.06,ESE,114,5.0,0.0,98,0.02,,SKC,1.39,VWS V14.01,2013-04-29 02:15:00,
2013-04-28 22:20:00,53.7,53.2,30.06,SSE,151,6.0,0.0,98,0.02,,SKC,1.39,VWS V14.01,2013-04-29 02:20:00,
2013-04-28 22:25:00,53.8,53.2,30.06,ENE,64,1.0,0.0,98,0.01,,SKC,1.39,VWS V14.01,2013-04-29 02:25:00,
2013-04-28 22:30:00,53.9,53.3,30.05,East,94,1.0,0.0,98,0.02,,SKC,1.40,VWS V14.01,2013-04-29 02:30:00,
2013-04-28 22:35:00,54.0,53.5,30.05,ENE,78,2.0,0.0,98,0.02,,SKC,1.40,VWS V14.01,2013-04-29 02:35:00,
2013-04-28 22:40:00,54.1,53.5,30.05,ESE,113,3.0,0.0,98,0.03,,SKC,1.41,VWS V14.01,2013-04-29 02:40:00,
2013-04-28 22:45:00,54.1,53.5,30.05,ESE,106,4.0,0.0,98,0.03,,SKC,1.41,VWS V14.01,2013-04-29 02:45:00,
2013-04-28 22:50:00,54.2,53.7,30.04,SSW,195,5.0,0.0,98,0.03,,SKC,1.41,VWS V14.01,2013-04-29 02:50:00,
2013-04-28 22:55:00,54.3,53.8,30.04,ENE,74,2.0,0.0,98,0.04,,SKC,1.42,VWS V14.01,2013-04-29 02:55:00,
2013-04-28 23:00:00,54.3,53.8,30.04,East,90,2.0,0.0,98,0.04,,SKC,1.42,VWS V14.01,2013-04-29 03:00:00,
2013-04-28 23:05:00,54.4,53.8,30.04,SE,137,3.0,0.0,98,0.04,,SKC,1.42,VWS V14.01,2013-04-29 03:05:00,
2013-04-28 23:10:00,54.5,54.0,30.04,SE,136,1.0,0.0,98,0.04,,SKC,1.42,VWS V14.01,2013-04-29 03:10:00,
2013-04-28 23:15:00,54.5,54.0,30.04,East,89,3.0,0.0,98,0.04,,SKC,1.43,VWS V14.01,2013-04-29 03:15:00,
2013-04-28 23:20:00,54.6,54.0,30.04,ESE,110,2.0,0.0,98,0.04,,SKC,1.43,VWS V14.01,2013-04-29 03:20:00,
2013-04-28 23:25:00,54.7,54.2,30.03,East,92,3.0,0.0,98,0.04,,SKC,1.43,VWS V14.01,2013-04-29 03:25:00,
2013-04-28 23:30:00,54.7,54.2,30.03,SE,131,3.0,0.0,98,0.05,,SKC,1.44,VWS V14.01,2013-04-29 03:30:00,
2013-04-28 23:35:00,54.8,54.2,30.03,South,188,2.0,0.0,98,0.04,,SKC,1.44,VWS V14.01,2013-04-29 03:35:00,
2013-04-28 23:40:00,54.8,54.2,30.02,SW,218,2.0,0.0,98,0.04,,SKC,1.44,VWS V14.01,2013-04-29 03:40:00,
2013-04-28 23:45:00,54.9,54.3,30.02,SE,126,1.0,0.0,98,0.04,,SKC,1.45,VWS V14.01,2013-04-29 03:45:00,
2013-04-28 23:50:00,54.9,54.3,30.02,SE,132,3.0,0.0,98,0.04,,SKC,1.45,VWS V14.01,2013-04-29 03:50:00,